Location: Detroit
(42.3310°N, 83.0460°W)
Time: 19:40:23
(UTC-05:00)

A-11 Canister half - Pass Details

Date: 08 October 2023
Orbit: 1525 x 1684 km, 47.3° (Epoch: 04 December)

Event Time Altitude Azimuth Distance (km) Brightness Sun altitude
Rises 19:26:06 0° 295° (WNW) 4,715 12.8 -5.3°
Reaches altitude 10° 19:29:27 10° 287° (WNW) 3,747 12.4 -5.9°
Maximum altitude 19:37:43 35° 226° (SW) 2,352 10.5 -7.4°
Drops below altitude 10° 19:46:13 10° 165° (SSE) 3,843 10.9 -9.0°
Sets 19:49:43 0° 157° (SSE) 4,849 11.4 -9.6°
